Regional Weather Roundup
Issued by NWS

Home | Current Version | Previous Version | Graphics & Text | Print | Product List | Glossary Off
Versions: 1 2 3 4 5 6 7 8 9 10 11 12 13 14 15 16 17 18 19 20 21 22 23 24 25 26 27 28 29 30 31 32 33 34 35 36 37 38 39 40 41 42 43 44 45 46 47 48 49 50

000
ASUS43 KMKX 280221
RWRWI

WISCONSIN REGIONAL WEATHER ROUNDUP
NATIONAL WEATHER SERVICE MILWAUKEE/SULLIVAN WI
900 PM CDT SUN JUL 27 2014

NOTE: "FAIR" INDICATES FEW OR NO CLOUDS BELOW 12,000 FEET WITH NO
SIGNIFICANT WEATHER AND/OR OBSTRUCTIONS TO VISIBILITY.

WIZ001-002-006>008-014>016-023>028-280300-
NORTHWEST WISCONSIN

CITY           SKY/WX    TMP DP  RH WIND       PRES   REMARKS
SUPERIOR ARPT  PTCLDY    58  56  94 CALM      30.07S
ASHLAND        PTCLDY    55  53  93 CALM      30.06R
HAYWARD        CLEAR     56  53  90 CALM      30.07R
SIREN          CLOUDY    61  54  76 N5        30.08S
RICE LAKE      CLEAR     60  51  71 N5        30.08R
LADYSMITH      CLEAR     59  51  76 N8        30.07R
EAU CLAIRE     CLEAR     62  52  69 N8        30.04R
MENOMONIE      CLEAR     63  53  72 N5        30.06R
NEW RICHMOND   CLEAR     61  54  77 N5        30.09R
OSCEOLA        PTCLDY    62  56  81 N5        30.11R
$$

WIZ003>005-009-010-017-018-280300-
NORTH CENTRAL WISCONSIN

CITY           SKY/WX    TMP DP  RH WIND       PRES   REMARKS
WOODRUFF       CLEAR     57  53  85 N3        30.04R
RHINELANDER    CLEAR     57  50  77 N7        30.03R
EAGLE RIVER    PTCLDY    57  47  69 N5        30.02R
LAND O LAKES   PTCLDY    57  49  75 N7        30.03R
PHILLIPS       CLEAR     56  51  85 CALM      30.04R
TOMAHAWK       CLEAR     55  50  82 CALM      30.03R
MEDFORD        CLEAR     57  51  78 N7        30.03R
MERRILL        CLEAR     56  52  86 N3        30.01R
$$

WIZ029-030-035-036-043>047-280300-
CENTRAL WISCONSIN

CITY           SKY/WX    TMP DP  RH WIND       PRES   REMARKS
WAUSAU         CLEAR     60  52  74 N8        29.99R
MOSINEE        CLEAR     59  54  82 N18       30.01R
MARSHFIELD     PTCLDY    62  54  74 N12       30.00R
STEVENS POINT  CLEAR     59  52  76 N9        29.99R
WAUPACA        CLEAR     64  58  79 N7        29.96R
WAUTOMA        CLEAR     65  56  72 N10G18    29.96R
WISC RAPIDS    PTCLDY    63  54  72 MISG      29.99R
CAMP DOUGLAS   CLOUDY    65  61  87 N10G21    29.98R
$$

WIZ011>013-019>022-031-037>040-048>050-280300-
NORTHEAST WISCONSIN

CITY           SKY/WX    TMP DP  RH WIND       PRES   REMARKS
ANTIGO         CLEAR     55  50  83 N6        30.00R
STURGEON BAY   CLOUDY    63  48  59 N21G28    29.93R
GREEN BAY      MOCLDY    63  52  67 N10       29.93R
MANITOWOC      CLOUDY    64  53  67 N15G21    29.90R
APPLETON       PTCLDY    63  54  72 N13G25    29.94R
CLINTONVILLE   CLEAR     61  52  72 N9        29.96R
OSHKOSH        MOCLDY    65  56  72 N14       29.92R
$$

WIZ032>034-041-042-053>061-280300-
SOUTHWEST WISCONSIN

CITY           SKY/WX    TMP DP  RH WIND       PRES   REMARKS
LA CROSSE      CLEAR     68  57  68 N15       29.99R
SPARTA         PTCLDY    66  56  71 N8        29.99R
VIROQUA        MOCLDY    66  59  77 N8        29.98R
BOSCOBEL       CLEAR     67  61  81 NW7       29.95R
PRAIRIE DU CHI CLEAR     69  59  71 NW10G16   29.96R
PLATTEVILLE    CLOUDY    68  59  72 NW10      29.96R
$$

WIZ056-057-062-063-064-067-068-280300-
SOUTH CENTRAL WISCONSIN

CITY           SKY/WX    TMP DP  RH WIND       PRES   REMARKS
BARABOO/DELLS  CLOUDY    66  56  70 N6        29.95R
LONE ROCK      PTCLDY    72  59  63 N12G23    29.94R
WATERTOWN      DRIZZLE   64  62  91 N7        29.90R
MADISON        MOCLDY    69  59  70 N7        29.91R
MIDDLETON      CLOUDY    67  62  84 N8        29.93R
MONROE         PTCLDY    66  59  77 N7        29.91R
JANESVILLE     NOT AVBL
$$

WIZ051-052-058>065-066-070>072-280300-
SOUTHEAST WISCONSIN

CITY           SKY/WX    TMP DP  RH WIND       PRES   REMARKS
MILWAUKEE      MOCLDY    63  59  87 N10       29.87R
WAUKESHA       NOT AVBL
MILWAUKEE/TIMM CLOUDY    64  57  77 N7        29.87R
RACINE         CLOUDY    63  60  90 N13       29.88R
BURLINGTON     CLEAR     64  58  82 N9G16     29.87R
KENOSHA        MOCLDY    64  60  87 N14       29.88R
FOND DU LAC    CLOUDY    66  56  70 N13G25    29.92R
SHEBOYGAN      CLOUDY    64  54  69 N15G29    29.89R
WEST BEND      PTCLDY    63  54  72 N9        29.89R
JUNEAU         CLOUDY    64  59  86 N10       29.92R
$$

LSZ147-162-280300-
LAKE SUPERIOR

STATION/POSITION TIME  TEMP    WIND        PRES    WAVE
                       AIR SEA DIR/SP/G            HT/PER
                 (UTC) (F)     (DEG/KT/KT) (MB)    (FT/S)
W MID LAKE BUOY  0150   53 43  300/  8/  8 1017.5R   1/ 4
PORT WING        0140   59     190/  3/  4 1017.9R
SAXON HARBOR     0140             CALM     1017.6R
$$

LMZ867-665-643>646-280300-
LAKE MICHIGAN

STATION/POSITION TIME  TEMP    WIND        PRES    WAVE
                       AIR SEA DIR/SP/G            HT/PER
                 (UTC) (F)     (DEG/KT/KT) (MB)    (FT/S)
N MID LAKE BUOY  0150   60 56  340/ 19/ 21 1010.2R   3/ 4
NORTHPORT PIER   0120   63     350/ 25     1011.5R
KEWAUNEE LAKESHO 0100   63     350/ 11/ 19 1012.0R
SHEBOYGAN LAKESH 0200   60     350/ 20/ 22 1012.1R
PORT WASHINGTON  0140   66     360/  7/ 11 1011.9R
ATWATER BUOY     0200   62      10/ 12     1012.3R
MILWAUKEE LAKESH 0200   62     360/ 12/ 16   N/A
S MID LAKE BUOY  0150   62 62  340/ 23/ 27 1009.5R   3/ 4
KENOSHA   LAKESH 0200   62      10/ 16/ 20 1010.8R
$$

TC  - TEMPERATURE IN CELSIUS
VSB - VISIBILITY IN STATUTE MILES
WCI - WIND CHILL INDEX
HX  - HEAT INDEX




USA.gov is the U.S. government's official web portal to all federal, state and local government web resources and services.